RH
37 38 39 40 44 48 51 48 43 41 42 41 41 41 41 40 40 35 32 33 33 34 34 35 37 37 39 41 42 43 46 47
40 40 41 44 48 50 49 42 40 40 41 39 39 40 39 38 35 32 31 31 31 33 34 35 36 38 40 41 42 41 42 45
44 40 42 45 47 42 40 39 40 40 40 39 39 39 35 30 29 28 27 26 27 29 31 33 36 38 40 40 39 39 42 44
43 38 38 37 35 36 38 38 37 36 35 34 31 29 30 27 27 26 25 25 25 27 30 34 36 35 39 38 41 46 48 46
42 38 34 32 32 33 34 32 30 30 29 28 28 27 28 29 28 26 25 26 24 24 29 30 29 33 37 40 39 41 45 46
41 36 36 35 31 31 28 23 19 18 22 26 28 29 27 31 28 28 23 23 22 22 22 23 24 26 26 26 34 36 38 44
41 39 37 35 30 26 23 21 20 19 21 24 25 25 25 24 24 22 21 19 19 18 18 19 19 20 21 21 22 24 26 26
48 39 36 32 25 21 20 20 20 20 21 22 23 22 22 21 21 20 18 17 16 16 16 16 16 16 16 16 16 15 16 19
43 38 33 27 22 21 21 22 23 24 24 24 25 24 24 24 22 21 20 20 19 19 19 18 18 17 17 16 16 15 15 16
44 38 33 27 22 22 25 27 27 27 27 27 28 27 26 25 24 24 24 24 24 23 23 22 21 21 20 19 18 17 16 17
41 37 33 28 27 28 30 31 32 32 33 32 31 30 29 28 27 27 27 27 27 27 26 26 25 25 23 22 20 20 22 23
37 37 33 30 30 32 33 35 36 36 37 35 35 34 33 33 32 32 31 31 31 30 29 28 29 26 24 24 24 26 30 34
35 36 35 34 34 35 37 38 39 39 38 39 39 38 38 37 36 35 35 37 37 34 32 31 33 29 26 25 31 35 36 39
37 38 39 39 39 41 42 43 44 43 42 42 42 42 42 41 40 39 39 41 41 40 37 36 37 32 29 28 32 40 41 41
44 44 45 46 46 46 47 49 48 47 46 47 47 47 46 45 44 43 44 46 45 41 40 37 37 38 35 33 32 36 36 42
50 51 53 53 53 52 51 51 50 51 51 52 51 52 52 50 46 46 49 50 46 45 44 41 39 36 32 30 30 32 33 33
56 56 56 57 57 56 57 56 55 57 57 56 57 56 53 51 49 54 54 53 50 46 42 34 32 28 29 28 26 28 30 29
57 61 61 61 63 62 64 62 62 63 63 62 61 58 55 53 57 60 61 58 50 46 42 35 31 29 28 28 28 27 27 27
60 64 67 66 67 69 69 67 67 69 67 65 61 58 59 65 69 70 62 61 48 41 40 36 33 32 29 29 30 31 30 29
62 65 68 67 70 74 74 72 71 68 66 65 63 66 72 70 65 65 67 58 50 40 39 36 32 29 28 26 27 27 26 26